#timestamp,LO_Frequency,Hit,StdDev 
1572408015.8,286047000.2,P
1572408035.6,286046998.5,N
1572408055.5,286046999.7,N
1572408075.3,286047000.9,N
1572408095.1,286047002.7,N
1572408115.9,286047004.0,N
1572408135.7,286047003.6,N
1572408155.5,286047006.0,N
1572408175.4,286047005.3,N
1572408195.2,286047007.2,N
1572408215.0,286047005.1,N
1572408216.0,286047005.1,N
1572408235.8,286047007.0,N
1572408255.6,286047006.6,N
1572408275.5,286047004.5,N
1572408295.3,286047005.8,N
1572408315.1,286047004.2,N
1572408335.9,286047003.5,N
1572408355.7,286047004.4,N
1572408375.6,286047001.3,N
1572408395.4,286047002.0,N
1572408415.2,286047002.4,N
1572408435.1,286047000.2,N
1572408436.0,286047000.2,N
1572408455.8,286047000.3,N
1572408475.6,286047001.1,N
1572408495.5,286047001.6,N
1572408515.3,286047001.3,N
1572408535.2,286047001.9,N
1572408555.9,286047000.4,N
1572408575.7,286046998.7,N
1572408595.6,286046998.4,N
1572408615.4,286046998.9,N
1572408635.2,286046997.4,N
1572408655.1,286046998.9,N
1572408656.0,286046998.9,N
1572408675.8,286046998.8,N
1572408695.7,286046996.6,N
1572408715.5,286046996.9,N
1572408735.3,286046996.6,N
1572408755.2,286046997.3,N
1572408775.9,286046997.7,N
1572408795.7,286046997.3,N
1572408815.6,286046996.7,N
1572408835.4,286046997.5,N
1572408855.3,286046995.3,N
1572408875.1,286046995.0,N
1572408876.0,286046995.0,N
1572408895.8,286046995.0,N
1572408915.7,286046994.9,N
1572408935.5,286046997.7,N
1572408955.3,286046995.5,N
1572408975.2,286046997.4,N
1572408995.0,286046997.8,N
1572408995.9,286046997.8,N
1572409015.8,286046995.6,N
1572409035.6,286046997.2,N
1572409055.4,286046999.4,N
1572409075.3,286047000.9,N
1572409095.1,286047001.2,N
1572409115.8,286047001.0,N
1572409135.7,286047000.7,N
1572409155.5,286047001.2,N
1572409175.4,286047000.3,N
1572409195.2,286047000.8,N
1572409215.0,286046999.4,N
1572409215.9,286046999.4,N
1572409235.8,286046996.6,N
1572409255.6,286046997.9,N
1572409275.4,286046995.1,N
1572409295.3,286046995.8,N
1572409315.1,286046996.4,N
1572409335.9,286046997.6,N
1572409355.7,286046997.2,N
1572409375.5,286046997.9,N
1572409395.4,286046998.0,N
1572409415.2,286046996.0,N
1572409435.0,286046996.0,N
1572409435.9,286046996.0,N
1572409455.8,286046993.7,Y
1572409475.6,286046997.9,P
1572409495.5,286046996.8,P
1572409515.3,286046997.5,P
1572409535.1,286046997.4,Y
1572409555.9,286046998.4,P
1572409575.7,286047001.0,N
1572409595.6,286046999.8,N
1572409615.4,286046997.1,N
1572409635.2,286046997.2,N
1572409655.1,286046999.6,N
1572409656.0,286046999.6,N
1572409675.8,286046996.7,N
1572409695.6,286046995.6,Y
1572409715.5,286046996.8,P
1572409735.3,286046997.3,P
1572409755.2,286046996.5,P
1572409775.9,286046997.1,Y
1572409795.7,286047000.7,P
1572409815.6,286047000.9,N
1572409835.4,286047001.2,N
1572409855.2,286046998.6,N
1572409875.1,286046998.4,N
1572409876.0,286046998.4,N
1572409895.8,286047000.5,N
1572409915.7,286047000.9,N
1572409935.5,286046999.7,N
1572409955.3,286046999.8,N
1572409975.2,286047002.8,N
1572409995.0,286046999.7,N
1572409995.9,286046999.7,N
1572410015.7,286047002.6,N
1572410035.6,286046999.7,N
1572410055.4,286047000.1,N
1572410075.3,286047002.5,N
1572410095.1,286046999.8,N
1572410096.0,286046999.8,N
1572410115.8,286047002.5,N
1572410135.7,286047002.4,N
1572410155.5,286047002.1,N
1572410175.3,286047003.7,N
1572410195.2,286047004.9,Y
1572410215.0,286047004.7,P
1572410215.9,286047004.7,N
1572410235.8,286047005.4,N
1572410255.6,286047003.7,N
1572410275.4,286047005.0,N
1572410295.3,286047006.0,Y
1572410315.1,286047000.5,P
1572410335.8,286046996.8,N
1572410355.7,286046996.9,N
1572410375.5,286046997.3,N
1572410395.4,286046998.9,N
1572410415.2,286046998.9,N
1572410435.0,286046998.5,N
1572410435.9,286046998.5,N
1572410455.8,286046998.4,N
1572410475.6,286046997.7,N
1572410495.5,286046998.0,N
1572410515.3,286046997.4,N
1572410535.1,286046996.5,N
1572410555.9,286046999.9,N
1572410575.7,286047001.1,N
1572410595.5,286046999.5,N
1572410615.4,286046997.6,N
1572410635.2,286046997.6,N
1572410655.1,286046999.6,N
1572410656.0,286046999.6,N
1572410675.8,286046998.3,N
1572410695.6,286046998.9,N
1572410715.5,286046998.1,N
1572410735.3,286046996.5,N
1572410755.1,286046998.8,N
1572410775.9,286046995.0,Y
1572410795.7,286046998.6,P
1572410815.6,286046999.3,P
1572410835.4,286046999.1,N
1572410855.2,286046999.2,N
1572410875.1,286046997.1,Y
1572410876.0,286046997.1,P
1572410895.8,286046999.2,N
1572410915.7,286046998.9,N
1572410935.5,286047001.0,N
1572410955.3,286046998.3,N
1572410975.2,286046998.4,N
1572410995.0,286046999.4,N
1572410995.9,286046999.4,N
1572411015.7,286046999.4,N
1572411035.6,286046999.2,N
1572411055.4,286046998.6,N
1572411075.3,286046999.5,N
1572411095.1,286046999.6,N
1572411096.0,286046999.6,N
1572411115.8,286046999.5,N
1572411135.7,286046996.5,Y
1572411155.5,286047001.2,P
1572411175.4,286046998.2,N
1572411195.2,286046996.8,N
1572411215.0,286046997.8,N
1572411215.9,286046997.8,N
1572411235.8,286046997.5,N
1572411285.6,286046994.9,E
1572411295.6,286046996.6,N
1572411315.4,286047004.4,P
1572411335.2,286047002.3,N
1572411355.1,286047001.6,N
1572411356.0,286047001.6,N
1572411375.8,286047000.5,N
1572411395.6,286047000.9,N
1572411415.5,286047002.1,N
1572411435.3,286047004.4,N
1572411455.2,286046999.9,N
1572411475.9,286047001.3,N
1572411495.7,286047001.3,N
1572411515.6,286047006.0,Y
1572411535.4,286047004.0,P
1572411555.2,286047004.4,P
1572411575.1,286047003.6,N
1572411576.0,286047003.6,Y
1572411595.8,286047000.3,P
